Regional Weather Roundup
Issued by NWS

Home | Current Version | Previous Version | Graphics & Text | Print | Product List | Glossary On
Versions: 1 2 3 4 5 6 7 8 9 10 11 12 13 14 15 16 17 18 19 20 21 22 23 24 25 26 27 28 29 30 31 32 33 34 35 36 37 38 39 40 41 42 43 44 45 46 47 48 49 50
000
ASUS45 KPSR 190110
RWRAZ

ARIZONA REGIONAL HOURLY WEATHER ROUNDUP
NATIONAL WEATHER SERVICE PHOENIX AZ
600 PM MST THU SEP 18 2014

NOTE: FAIR INDICATES FEW OR NO CLOUDS BELOW 12,000 FEET WITH NO
SIGNIFICANT WEATHER AND/OR OBSTRUCTIONS TO VISIBILITY.

AZZ001>003-036-190200-
NORTHWEST ARIZONA

CITY           SKY/WX    TMP DP  RH WIND       PRES   REMARKS
BULLHEAD CITY  CLEAR    100  59  25 S15       29.61S HX 100
KINGMAN        CLEAR     87  51  28 SW13      29.83S
$$

AZZ004>008-015-016-018-190200-
NORTH CENTRAL ARIZONA

CITY           SKY/WX    TMP DP  RH WIND       PRES   REMARKS
GRAND CANYON   PTCLDY    75  48  38 SW8       30.05S
PRESCOTT       PTCLDY    78  55  44 W10       29.96R
FLAGSTAFF      CLOUDY    62  56  80 S5        30.11S
PAYSON         CLOUDY    72  61  68 N8        30.00R
PAGE           CLEAR     88  47  24 NE3       29.85S
$$

AZZ009>014-017-190200-
NORTHEAST ARIZONA

CITY           SKY/WX    TMP DP  RH WIND       PRES   REMARKS
WINSLOW        PTCLDY    81  52  36 S3        29.93R
SAINT JOHNS    MOCLDY    75  52  44 S3        29.99R
WINDOW ROCK    PTCLDY    73  49  42 SW5       30.06S
SHOW LOW       PTCLDY    68  55  64 S9        30.08R
$$

AZZ023-190200-
GREATER PHOENIX AREA

CITY           SKY/WX    TMP DP  RH WIND       PRES   REMARKS
PHOENIX        PTCLDY    94  62  34 S6        29.69S
BUCKEYE          N/A     91  63  38 SE5       29.69F
GLENDALE       PTCLDY    93  63  36 E3        29.70S
LUKE AFB       CLEAR     93  64  37 SE5       29.68S
DEER VALLEY    CLEAR     91  61  36 S6        29.71S
SCOTTSDALE     CLEAR     91  61  36 CALM      29.73S
MESA-FALCON    PTCLDY    91  61  35 SW9       29.71
MESA-GATEWAY   PTCLDY    91  63  38 CALM      29.74R
CHANDLER       PTCLDY    91  63  38 SW6       29.72R
$$

AZZ027-028-190200-
SOUTHWEST MARICOPA COUNTY AND PINAL COUNTY

CITY           SKY/WX    TMP DP  RH WIND       PRES   REMARKS
CASA GRANDE    CLEAR     90  63  40 CALM      29.74S
GILA BEND      PTCLDY    95  57  28 W2        29.69
$$

AZZ503-504-507>509-190200-
SOUTHEAST ARIZONA

CITY           SKY/WX    TMP DP  RH WIND       PRES   REMARKS
TUCSON         CLOUDY    83  65  54 N3        29.84S
DAVIS-MONTHAN  CLOUDY    80  64  59 NE7       29.83R
RYAN FIELD       N/A     84  66  54 CALM      29.82S
NOGALES        MOCLDY    70  67  90 SE5       29.92R
SIERRA VISTA   LGT RAIN  72  64  78 W6        29.97R
DOUGLAS        CLOUDY    70  67  90 S7        29.94R
SAFFORD        CLOUDY    76  64  66 S5        29.87R
$$

AZZ020-021-025-026-031-190200-
SOUTHWEST ARIZONA

CITY           SKY/WX    TMP DP  RH WIND       PRES   REMARKS
YUMA           PTCLDY   103  39  11 W13       29.61S
$$

CAZ031-033-041-043-047-048-061-190200-
SOUTHERN CALIFORNIA

CITY           SKY/WX    TMP DP  RH WIND       PRES   REMARKS
DOWNTOWN L.A.  MOSUNNY   73  64  73 VRB3      29.81S
L.A. AIRPORT   MOSUNNY   72  64  76 W15       29.82S
SAN DIEGO      MOCLDY    75  65  70 NW9       29.84S
BURBANK        SUNNY     76  62  62 S9        29.80S
ONTARIO        MOSUNNY   81  62  52 SW13G22   29.81R
RIVERSIDE      CLEAR     81  62  52 W14G20    29.80S
PALM SPRINGS   CLEAR     98  46  17 NW16      29.65S
EL CENTRO NAS  PTCLDY    97  46  17 SW25      29.62S
IMPERIAL       CLEAR     96  50  20 W18G29    29.61S
BLYTHE         CLEAR    102  53  19 S6        29.60F HX 100
NEEDLES        CLEAR    100  58  24 S7        29.63S
$$

NVZ020-UTZ003-190200-
SOUTHERN NEVADA-UTAH

CITY           SKY/WX    TMP DP  RH WIND       PRES   REMARKS
LAS VEGAS      PTCLDY    94  29  10 SW16G30   29.67S
SALT LAKE CITY PTCLDY    88  43  20 S10       29.75F
$$

NMZ009-TXZ055-190200-
NEW MEXICO-WEST TEXAS

CITY           SKY/WX    TMP DP  RH WIND       PRES   REMARKS
ALBUQUERQUE    PTCLDY    74  56  53 S15       29.99R
EL PASO        CLOUDY    69  65  86 N12       29.92S
$$


........................KEY........................
SKY/WX - SKY CONDITION/WEATHER
TMP    - TEMPERATURE IN FAHRENHEIT
DP     - DEW POINT IN FAHRENHEIT
RH     - RELATIVE HUMIDITY IN PERCENT
WIND   - DIRECTION AND SPEED IN MILES PER HOUR (MPH)
VRB    - VARIABLE WIND DIRECTION
PRES   - MEAN SEA LEVEL PRESSURE IN INCHES OF MERCURY
         F - FALLING PRESSURE   R - RISING PRESSURE
         S - STEADY PRESSURE
VSB    - VISIBILITY IN MILES
HX     - HEAT INDEX IN FAHRENHEIT
WCI    - WIND CHILL INDEX IN FAHRENHEIT
TC     - TEMPERATURE IN CELSIUS WHICH IS ALSO KNOWN AS
         TEMPERATURE IN CENTIGRADE
AFB    - AIR FORCE BASE
         LUKE AFB IS LUKE AIR FORCE BASE
         DAVIS-MONTHAN IS DAVIS-MONTHAN AIR FORCE BASE
NAS    - NAVAL AIR STATION
         EL CENTRO NAS IS EL CENTRO NAVAL AIR STATION
N/A    - NOT AVAILABLE



USA.gov is the U.S. government's official web portal to all federal, state and local government web resources and services.